Regional Weather Roundup
Issued by NWS

Home | Current Version | Previous Version | Text Only | Print | Product List | Glossary Off
Versions: 1 2 3 4 5 6 7 8 9 10 11 12 13 14 15 16 17 18 19 20 21 22 23 24 25 26 27 28 29 30 31 32 33 34 35 36 37 38 39 40 41 42 43 44 45 46 47 48 49 50

000
ASUS45 KBOU 261607
RWRCO

WEATHER ROUNDUP FOR COLORADO
NATIONAL WEATHER SERVICE DENVER/BOULDER CO
1000 AM MDT TUE AUG 26 2014

NOTE: "FAIR" INDICATES FEW OR NO CLOUDS BELOW 12000 FEET WITH NO
SIGNIFICANT WEATHER AND/OR OBSTRUCTIONS TO VISIBILITY.

COZ001>005-013-030-031-261700-
...NORTHWEST COLORADO...

CITY           SKY/WX    TMP DP  RH WIND       PRES   REMARKS
CRAIG          LGT RAIN  57  51  80 SW9       30.30R
HAYDEN           N/A     55  46  71 SE8       30.30
MEEKER         LGT RAIN  55  49  80 VRB3      30.29R
MOUNT WERNER   NOT AVBL
STEAMBOAT SPGS CLOUDY    55  47  76 E3        30.32S
WALDEN         CLOUDY    54  43  66 CALM      30.38R
$$

COZ006>008-011-261700-
...WEST CENTRAL VALLEYS...

CITY           SKY/WX    TMP DP  RH WIND       PRES   REMARKS
GRAND JUNCTION MOSUNNY   70  50  49 S3        30.17R
MONTROSE       PTSUNNY   72  44  36 SE9       30.25S
EAGLE          MOSUNNY   57  46  67 CALM      30.35R
RIFLE          PTSUNNY   64  48  56 NE5       30.24S
DELTA          PTSUNNY   74  47  38 E6        30.22S HAZE
NUCLA          PTSUNNY   72  45  37 W3        30.29R
$$

COZ017>023-064>068-261700-
...SOUTHWEST COLORADO...

CITY           SKY/WX    TMP DP  RH WIND       PRES   REMARKS
DURANGO        PTSUNNY   61  48  62 E3        30.33R
CORTEZ         MOSUNNY   71  46  40 CALM      30.26S
PAGOSA SPRINGS   N/A    N/A N/A N/A MISG        N/A
TELLURIDE      PTSUNNY   57  45  62 CALM      30.45S
WOLF CREEK PAS NOT AVBL
$$

COZ009-010-012-014-032>034-037-058>063-261700-
...CENTRAL COLORADO...

CITY           SKY/WX    TMP DP  RH WIND       PRES   REMARKS
ASPEN          PTSUNNY   66  42  41 CALM      30.35S
BUENA VISTA    MOSUNNY   60  47  62 SE5       30.42S
COPPER MTN     PTSUNNY   54  32  43 S9        30.64S
BERTHOUD PASS  FAIR      43  41  93 W8        30.68S
COTTONWOOD PAS MOSUNNY   59  43  55 CALM      30.52R
GUNNISON       PTSUNNY   55  43  62 SW6       30.43R
KREMMLING      PTSUNNY   55  41  58 CALM      30.38S
LEADVILLE      MOSUNNY   55  43  63 NW5       30.50S
SALIDA         MOSUNNY   59  50  72 CALM      30.47
SUNLIGHT       PTSUNNY   52  43  71 CALM      30.57R
WILKERSON PASS NOT AVBL
$$

COZ069>075-261700-
...SAN LUIS VALLEY/SANGRE DE CRISTO MOUNTAINS...

CITY           SKY/WX    TMP DP  RH WIND       PRES   REMARKS
ALAMOSA        CLOUDY    64  47  53 SW5       30.37R
LA VETA PASS   NOT AVBL
SAGUACHE       CLOUDY    59  43  55 NW5       30.41R
$$

COZ035-036-038>040-261700-
...NORTHERN COLORADO FRONT RANGE...

CITY           SKY/WX    TMP DP  RH WIND       PRES   REMARKS
DENVER INTL AP PTSUNNY   68  58  70 S14       30.25S
DMNS CITY PARK   N/A     70  57  63 SW5       30.24S
AURORA         PTSUNNY   67  56  69 S7        30.27R
FRONT RANGE AP PTSUNNY   66  59  77 SE13      30.26
ERIE MUNI ARPT PTSUNNY   67  58  72 SW3       30.23F
BOULDER MUN AP   N/A     64  55  72 CALM      30.24
CENTENNIAL     PTSUNNY   66  56  70 SE9       30.26F
BROOMFIELD     PTSUNNY   64  57  77 CALM      30.26S
FORT COLLINS   PTSUNNY   66  55  68 S10       30.24S
LONGMONT       PTSUNNY   69  59  69 CALM      30.24F
$$

COZ041-046-047-076>085-087-088-261700-
...PIKES PEAK/PALMER DIVIDE AND SOUTHERN FOOTHILLS...

CITY           SKY/WX    TMP DP  RH WIND       PRES   REMARKS
COLO. SPRINGS  PTSUNNY   62  54  74 CALM      30.32S
A. F. ACADEMY  CLOUDY    58  55  90 S6        30.32S
ELLICOTT       PTSUNNY   61  54  77 CALM      30.30S
FALCON         PTSUNNY   60  55  83 CALM      30.35R
FORT CARSON    PTSUNNY   63  55  75 SW7       30.30R
LIMON          CLOUDY    62  57  83 SE7       30.26F
MONUMENT HILL  PTSUNNY   61  54  77 S9        30.33S
TRINIDAD       PTSUNNY   67  56  67 N6        30.30R
$$

COZ042>045-048>051-090-091-261700-
...NORTHEAST COLORADO...

CITY           SKY/WX    TMP DP  RH WIND       PRES   REMARKS
GREELEY ARPT   PTSUNNY   68  55  64 E3        30.23F
AKRON          MOSUNNY   69  57  65 SE13      30.22F
BURLINGTON     MOSUNNY   68  60  75 SE9       30.22F
WRAY             N/A     75  59  57 SE12      30.18R
STERLING       MOSUNNY   72  61  68 SE5       30.20R
HOLYOKE        MOSUNNY   73  63  68 CALM      30.20S
FORT MORGAN    MOSUNNY   69  53  57 CALM      30.23S
$$

COZ086-089-092>099-261700-
...SOUTHEAST COLORADO...

CITY           SKY/WX    TMP DP  RH WIND       PRES   REMARKS
PUEBLO         CLOUDY    67  56  67 N5        30.25R
LA JUNTA       LGT RAIN  66  59  78 N3        30.23R
LAMAR          MOSUNNY   72  59  63 NW3       30.17S
SPRINGFIELD      N/A     79  56  45 SW15G23   30.19R
$$



USA.gov is the U.S. government's official web portal to all federal, state and local government web resources and services.